Location: Azul
(36.7830°S, 59.8500°W)
Time: 23:31:21
(UTC-03:00)

NOAA 15 - Pass Details

Date: 23 October 2021
Orbit: 797 x 813 km, 98.7° (Epoch: 30 November)

Event Time Altitude Azimuth Distance (km) Brightness Sun altitude
Rises 20:07:58 0° 159° (SSE) 3,339 7.8 -9.2°
Reaches altitude 10° 20:10:29 10° 151° (SSE) 2,403 7.0 -9.7°
Maximum altitude 20:15:27 40° 82° (E) 1,188 5.0 -10.6°
Drops below altitude 10° 20:20:22 10° 13° (NNE) 2,382 6.7 -11.5°
Sets 20:22:49 0° 5° (N) 3,307 7.5 -11.9°
